Tacoma, WA

3:46 PM PDT on July 26, 2016 (GMT -0700)
McChord Air Force Base

Weather History for KTCM - June, 2013

Change the Weather History Date:

Wednesday, June 26, 2013

  Actual Average Record
Temperature  
Mean Temperature 64 °F -  
Max Temperature 73 °F 69 °F 89 °F (1987)
Min Temperature 57 °F 49 °F 39 °F (1976)
Degree Days  
Heating Degree Days 1    
Growing Degree Days 14 (Base 50)    
Moisture  
Dew Point 57 °F    
Average Humidity 79    
Maximum Humidity 100    
Minimum Humidity 56    
Precipitation  
Precipitation 0.02 in - - ()
Sea Level Pressure  
Sea Level Pressure 29.98 in    
Wind  
Wind Speed 5 mph (SW)    
Max Wind Speed 17 mph    
Max Gust Speed 22 mph    
Visibility 10 miles    
Events Rain    
Averages and records for this station are not official NWS values.
T = Trace of Precipitation, MM = Missing Value Source: NWS Daily Summary

Daily Weather History Graph

Daily Weather History Graph

Search for Another Location

Airport or City:

Trip Planner

Search our weather history database for the weather conditions in past years. The results will help you decide how hot, cold, wet, or windy it might be!

Date:

Astronomy

Jun. 26, 2013 Rise Set
Actual Time 5:15 AM PDT 9:09 PM PDT
Civil Twilight 4:35 AM PDT 9:49 PM PDT
Nautical Twilight 3:41 AM PDT 10:44 PM PDT
Astronomical Twilight 2:17 AM PDT 12:07 AM PDT
Moon 11:16 PM PDT 9:30 AM PDT
Length of Visible Light 17h 13m
Length of Day
15h 53m
Waning Gibbous, 84% of the Moon is Illuminated
Jun 26
Waning Gibbous
Jun 29
Last Quarter
Jul 8
New
Jul 15
First Quarter
Jul 22
Full

Hourly Weather History & Observations

Time (PDT) Temp. Dew Point Humidity Pressure Visibility Wind Dir Wind Speed Gust Speed Precip Events Conditions
12:58 AM 57.0 °F 56.8 °F 99% 29.87 in 10.0 mi East 2.3 mph - N/A   Overcast
1:58 AM 57.6 °F 57.4 °F 99% 29.88 in 10.0 mi East 2.3 mph - N/A   Overcast
2:16 AM 57.2 °F 57.2 °F 100% 29.87 in 9.0 mi SE 1.2 mph - N/A Rain Light Rain
2:58 AM 58.3 °F 57.2 °F 96% 29.88 in 10.0 mi Variable 1.2 mph - 0.02 in Rain Light Rain
2:59 AM 59.0 °F 57.2 °F 94% 29.87 in 10.0 mi ESE 1.2 mph - N/A   Overcast
3:58 AM 58.1 °F 57.0 °F 96% 29.88 in 10.0 mi East 1.2 mph - 0.00 in   Overcast
4:58 AM 58.6 °F 57.6 °F 96% 29.89 in 10.0 mi NNW 3.5 mph - N/A   Overcast
5:58 AM 58.6 °F 57.9 °F 97% 29.90 in 10.0 mi NNW 2.3 mph - N/A   Overcast
6:58 AM 59.5 °F 57.2 °F 92% 29.91 in 10.0 mi Calm Calm - N/A   Overcast
7:02 AM 59.0 °F 57.2 °F 94% 29.90 in 10.0 mi Calm Calm - N/A Rain Light Rain
7:24 AM 59.0 °F 57.2 °F 94% 29.91 in 10.0 mi Calm Calm - N/A   Overcast
7:58 AM 60.1 °F 58.1 °F 93% 29.93 in 10.0 mi ESE 2.3 mph - 0.00 in   Overcast
8:17 AM 60.8 °F 57.2 °F 88% 29.92 in 10.0 mi SE 2.3 mph - N/A Rain Light Rain
8:28 AM 60.8 °F 59.0 °F 94% 29.92 in 10.0 mi ESE 4.6 mph - N/A   Mostly Cloudy
8:58 AM 61.7 °F 57.4 °F 86% 29.93 in 10.0 mi SE 4.6 mph - 0.00 in   Overcast
9:58 AM 64.0 °F 57.6 °F 79% 29.95 in 10.0 mi South 5.8 mph - N/A   Overcast
10:58 AM 67.5 °F 57.0 °F 69% 29.96 in 10.0 mi South 9.2 mph - N/A   Overcast
11:58 AM 69.1 °F 55.4 °F 62% 29.96 in 10.0 mi South 10.4 mph 19.6 mph N/A   Overcast
12:58 PM 71.4 °F 55.0 °F 56% 29.98 in 10.0 mi South 17.3 mph 21.9 mph N/A   Overcast
1:58 PM 71.6 °F 55.4 °F 57% 29.99 in 10.0 mi South 10.4 mph 17.3 mph N/A   Partly Cloudy
2:51 PM 71.6 °F 55.4 °F 57% 29.99 in 10.0 mi SW 16.1 mph - N/A Rain Light Rain
2:58 PM 71.2 °F 56.7 °F 60% 30.01 in 10.0 mi SW 13.8 mph - 0.00 in Rain Light Rain
3:01 PM 71.6 °F 55.4 °F 57% 30.00 in 10.0 mi SW 15.0 mph - N/A   Overcast
3:29 PM 69.8 °F 57.2 °F 64% 30.00 in 10.0 mi West 12.7 mph - N/A Rain Light Rain
3:44 PM 68.0 °F 59.0 °F 73% 30.01 in 10.0 mi West 12.7 mph - N/A   Overcast
3:58 PM 68.7 °F 59.4 °F 72% 30.02 in 10.0 mi West 9.2 mph - 0.00 in   Overcast
4:08 PM 68.0 °F 59.0 °F 73% 30.02 in 10.0 mi West 6.9 mph - N/A Rain Light Rain
4:18 PM 68.0 °F 59.0 °F 73% 30.02 in 10.0 mi West 9.2 mph - N/A   Overcast
4:58 PM 68.7 °F 57.9 °F 68% 30.04 in 10.0 mi West 8.1 mph - 0.00 in   Mostly Cloudy
5:02 PM 68.0 °F 59.0 °F 73% 30.03 in 10.0 mi West 11.5 mph - N/A Rain Light Rain
5:13 PM 68.0 °F 57.2 °F 68% 30.03 in 10.0 mi WSW 6.9 mph - N/A   Overcast
5:55 PM 68.0 °F 57.2 °F 68% 30.04 in 10.0 mi West 9.2 mph - N/A Rain Light Rain
5:58 PM 67.3 °F 57.9 °F 72% 30.05 in 10.0 mi West 10.4 mph - 0.00 in Rain Light Rain
6:11 PM 66.2 °F 59.0 °F 78% 30.05 in 10.0 mi WSW 10.4 mph - N/A   Overcast
6:58 PM 68.4 °F 58.6 °F 71% 30.06 in 10.0 mi NNW 6.9 mph - 0.00 in   Mostly Cloudy
7:55 PM 65.8 °F 57.7 °F 75% 30.07 in 10.0 mi WNW 6.9 mph - N/A   Overcast
8:55 PM 63.9 °F 56.3 °F 76% 30.08 in 10.0 mi NNW 4.6 mph - N/A   Overcast
9:55 PM 62.4 °F 55.8 °F 79% 30.09 in 10.0 mi NNW 4.6 mph - N/A   Mostly Cloudy
10:55 PM 61.3 °F 55.8 °F 82% 30.09 in 10.0 mi North 3.5 mph - N/A   Mostly Cloudy
11:58 PM 61.7 °F 55.4 °F 80% 30.09 in 10.0 mi North 2.3 mph - N/A   Overcast